This is the latest recevied weather packets stored in our database for station/object N8SDR. If no packets are shown the sender has not sent any weather packets the latest 10 day(s).
| Time | Temp. | Humidity | Pressure | Rain* | Wind** | Luminosity | Snow |
|---|---|---|---|---|---|---|---|
| 1777833515 | 16.11° C | 42% | 1013.1 hPa | 0 mm | - | 403 W/m² | - |
| 1777833212 | 16.67° C | 40% | 1013.6 hPa | 0 mm | - | 354 W/m² | - |
| 1777832910 | 16.11° C | 41% | 1013.7 hPa | 0 mm | - | 645 W/m² | - |
| 1777832609 | 16.67° C | 42% | 1013.6 hPa | 0 mm | - | 396 W/m² | - |
| 1777832305 | 16.67° C | 41% | 1013.8 hPa | 0 mm | - | 349 W/m² | - |
| 1777832002 | 16.67° C | 42% | 1013.8 hPa | 0 mm | - | 699 W/m² | - |
| 1777831699 | 16.11° C | 40% | 1013.9 hPa | 0 mm | - | 607 W/m² | - |
| 1777831397 | 16.67° C | 40% | 1013.8 hPa | 0 mm | - | 824 W/m² | - |
| 1777831093 | 16.67° C | 40% | 1013.9 hPa | 0 mm | - | 763 W/m² | - |
| 1777830791 | 16.11° C | 43% | 1014.1 hPa | 0 mm | - | 787 W/m² | - |
| 1777830486 | 16.11° C | 41% | 1013.7 hPa | 0 mm | - | 757 W/m² | - |
| 1777830185 | 16.11° C | 42% | 1014.1 hPa | 0 mm | - | 748 W/m² | - |
| 1777829880 | 16.67° C | 40% | 1014.1 hPa | 0 mm | - | 733 W/m² | - |
| 1777829576 | 16.67° C | 41% | 1014.2 hPa | 0 mm | - | 730 W/m² | - |
| 1777829273 | 16.67° C | 43% | 1014.1 hPa | 0 mm | - | 773 W/m² | - |
| 1777828970 | 16.11° C | 42% | 1014.2 hPa | 0 mm | - | 743 W/m² | - |
| 1777828667 | 17.22° C | 43% | 1014.4 hPa | 0 mm | - | 773 W/m² | - |
| 1777828364 | 16.67° C | 43% | 1014.4 hPa | 0 mm | - | 754 W/m² | - |
| 1777828061 | 16.11° C | 42% | 1014.3 hPa | 0 mm | - | 746 W/m² | - |
| 1777827757 | 15.56° C | 42% | 1014.6 hPa | 0 mm | - | 760 W/m² | - |
| 1777827455 | 16.67° C | 42% | 1014.9 hPa | 0 mm | - | 762 W/m² | - |
| 1777827152 | 15.56° C | 44% | 1015 hPa | 0 mm | - | 744 W/m² | - |
| 1777826847 | 16.11° C | 42% | 1014.8 hPa | 0 mm | - | 757 W/m² | - |
| 1777826546 | 16.11° C | 45% | 1014.7 hPa | 0 mm | - | 744 W/m² | - |
| 1777826241 | 15.56° C | 43% | 1015.2 hPa | 0 mm | - | 745 W/m² | - |
* Rain latest hour (hover to see other rain measurements)
** Current wind speed in m/s (hover to see current wind gust speed)